Orbital Elements at Epoch 2459000.5 (2020-May-31.0) TDB
Reference: JPL 23 (heliocentric ecliptic J2000)
Element | Value | Uncertainty (1-sigma) | Units |
e | .213801883333775 | 5.7873e-08 | |
a | 2.642791455142675 | 1.9977e-08 | au |
q | 2.077757664774764 | 1.5326e-07 | au |
i | 11.88435373674534 | 5.4281e-06 | deg |
node | 250.0757374351692 | 2.7604e-05 | deg |
peri | 85.51867241024949 | 3.1468e-05 | deg |
M | 263.7877996598764 | 1.8759e-05 | deg |
tp | 2459419.892262677871 (2021-Jul-24.39226268) | 8.3726e-05 | TDB |
period | 1569.252278092528 4.30 | 1.7793e-05 4.871e-08 | d yr |
n | .2294086202873579 | 2.6012e-09 | deg/d |
Q | 3.207825245510587 | 2.4249e-08 | au |
|
| | Orbit Determination Parameters
Additional Information
|